Regional Weather Roundup
Issued by NWS State College, PA

Home | Current Version | Previous Version | Graphics & Text | Print | Product List | Glossary Off
Versions: 1 2 3 4 5 6 7 8 9 10 11 12 13 14 15 16 17 18 19 20 21 22 23 24 25 26 27 28 29 30 31 32 33 34 35 36 37 38 39 40 41 42 43 44 45 46 47 48 49 50

000
ASUS41 KCTP 180310
RWRCTP

REGIONAL WEATHER ROUNDUP
NATIONAL WEATHER SERVICE STATE COLLEGE PA
1000 PM EST SUN DEC 17 2017

Note: "fair" indicates few or no clouds below 12,000 feet with no
significant weather and/or obstructions to visibility.

* = STATION THAT DOES NOT REPORT PRECIPITATION /E.G. RAIN...SNOW...ETC/
    THUNDER OR FOG.

PAZ002>004-007>009-013>016-020>023-029>032-180400-
WESTERN PENNSYLVANIA

CITY           SKY/WX    TMP DP  RH WIND       PRES   REMARKS
ERIE           CLOUDY    37  30  75 S12       30.06F
MEADVILLE      CLOUDY    34  32  92 S7        30.07S
FRANKLIN*      LGT RAIN  33  31  92 S5        30.08S
NEW CASTLE     CLOUDY    35  34  96 CALM      30.10F
BEAVER COUNTY  NOT AVBL
BUTLER*        CLOUDY    36  34  92 S5        30.09F
PITTSBURGH INT CLOUDY    38  34  85 CALM      30.09S
PITTSBURGH     CLOUDY    36  31  82 S8        30.08F
INDIANA*       CLOUDY    36  36 100 CALM      30.12F
LATROBE        LGT RAIN  36  36 100 CALM      30.11F
WASHINGTON CO* CLOUDY    36  33  89 S5        30.12F
$$

PAZ004>006-010>012-017>019-024>028-033>037-041-042-045-046-049>053-180400-
CENTRAL PENNSYLVANIA

CITY           SKY/WX    TMP DP  RH WIND       PRES   REMARKS
BRADFORD       CLOUDY    33  28  81 SW3       30.04F
DUBOIS         CLOUDY    35  30  82 SW8       30.07F
CLEARFIELD     CLOUDY    32  28  85 CALM      30.09F
JOHNSTOWN      CLOUDY    35  31  85 S5        30.06F
ALTOONA        CLOUDY    36  33  89 S5        30.10F
STATE COLLEGE  DRIZZLE   32  28  86 CALM      30.12F
WILLIAMSPORT   CLOUDY    35  27  72 E3        30.15F
SELINSGROVE    CLOUDY    32  30  92 CALM      30.17F
FT INDIANTOWN  CLOUDY    35  29  80 E3        30.17F
CAPITAL CITY   CLOUDY    37  28  70 CALM      30.17F
HARRISBURG     CLOUDY    36  30  79 CALM      30.16F
YORK           CLOUDY    37  31  78 E3        30.15F
$$

PAZ038>040-043-044-047-048-054-055-060>062-067>071-180400-
EASTERN PENNSYLVANIA

CITY           SKY/WX    TMP DP  RH WIND       PRES   REMARKS
SCRANTON       CLOUDY    30  25  81 CALM      30.15F
MOUNT POCONO   CLOUDY    27  23  85 E3        30.12F
ALLENTOWN      CLOUDY    33  26  75 NE5       30.20F
QUAKERTOWN*    CLOUDY    34  27  75 CALM      30.20F
READING        CLOUDY    35  30  82 CALM      30.18F
LANCASTER      CLOUDY    36  31  82 E5        30.18F
COATESVILLE    MOCLDY    36  30  80 CALM      30.19F
POTTSTOWN      CLOUDY    34  26  72 CALM      30.21F
BLUE BELL      CLOUDY    34  30  86 CALM      30.22F
DOYLESTOWN     CLOUDY    34  27  75 CALM      30.20F
WILLOW GROVE   NOT AVBL
NORTH PHILA    CLOUDY    37  30  75 NE7       30.23F
PHILADELPHIA   CLOUDY    39  31  72 NE8       30.21F
$$




USA.gov is the U.S. government's official web portal to all federal, state and local government web resources and services.